Track APRIZESAT 4 now! 10-day predictions APRIZESAT 4 is classified as:
1 35684U 09041D 25181.91305943 .00000508 00000-0 68525-4 0 9994 2 35684 98.1841 244.5925 0044384 21.5472 338.7596 14.83066747859283